GW0409 Weather Reports


Display with metric or nautical units.
time (UTC)temp
F
wind
direction
speed
MPH
gust
MPH
rain 1hr
in
rain 24hr
in
rain mn
in
humidity
%
barometer
mb
20260508164016 52 23 2.0 5.0 0.00 0.00 0.00 59 1010.3
20260508163019 52 8 2.0 6.0 0.00 0.00 0.00 60 1010.3
20260508162020 51 6 2.0 6.0 0.00 0.00 0.00 60 1010.2
20260508161017 51 357 1.0 5.0 0.00 0.00 0.00 62 1010.3
20260508160019 50 6 2.0 5.0 0.00 0.00 0.00 63 1010.2
20260508155017 49 1 3.0 7.0 0.00 0.00 0.00 64 1010.3
20260508154017 49 5 3.0 8.0 0.00 0.00 0.00 66 1010.3
20260508153018 48 23 4.0 7.0 0.00 0.00 0.00 67 1010.4
20260508152018 48 19 2.0 7.0 0.00 0.00 0.00 67 1010.5
20260508151018 47 30 3.0 8.0 0.00 0.00 0.00 67 1010.4
20260508150017 47 38 2.0 4.0 0.00 0.00 0.00 68 1010.4
20260508145018 47 305 2.0 4.0 0.00 0.00 0.00 69 1010.4
20260508144018 46 7 2.0 5.0 0.00 0.00 0.00 69 1010.4
20260508143018 46 14 3.0 6.0 0.00 0.00 0.00 71 1010.4
20260508142019 45 340 1.0 5.0 0.00 0.00 0.00 71 1010.4
20260508141039 45 21 3.0 7.0 0.00 0.00 0.00 70 1010.3
20260508140019 45 15 2.0 7.0 0.00 0.00 0.00 71 1010.3
20260508135040 45 22 3.0 6.0 0.00 0.00 0.00 70 1010.3
20260508134016 45 20 3.0 6.0 0.00 0.00 0.00 70 1010.3
20260508133021 45 23 2.0 5.0 0.00 0.00 0.00 70 1010.2
20260508132021 45 24 4.0 8.0 0.00 0.00 0.00 70 1010.2
20260508131020 45 17 4.0 6.0 0.00 0.00 0.00 69 1010.3
20260508130017 45 18 4.0 8.0 0.00 0.00 0.00 68 1010.4
20260508125017 45 13 4.0 7.0 0.00 0.00 0.00 68 1010.4
20260508124038 45 11 4.0 6.0 0.00 0.00 0.00 68 1010.5
20260508123017 46 11 3.0 4.0 0.00 0.00 0.00 67 1010.5
20260508122019 46 2 2.0 3.0 0.00 0.00 0.00 65 1010.5
20260508121018 46 10 3.0 4.0 0.00 0.00 0.00 65 1010.5
20260508120040 46 7 3.0 5.0 0.00 0.00 0.00 65 1010.6
20260508115023 47 11 3.0 5.0 0.00 0.00 0.00 64 1010.6
20260508114018 47 7 3.0 6.0 0.00 0.00 0.00 64 1010.6
20260508113020 47 9 3.0 5.0 0.00 0.00 0.00 63 1010.7
20260508112045 48 6 3.0 5.0 0.00 0.00 0.00 62 1010.6
20260508111020 48 16 2.0 4.0 0.00 0.00 0.00 61 1010.6
20260508110020 48 19 2.0 4.0 0.00 0.00 0.00 59 1010.6
20260508105016 49 19 3.0 6.0 0.00 0.00 0.00 56 1010.6
20260508104016 50 28 2.0 6.0 0.00 0.00 0.00 54 1010.6
20260508103020 50 8 3.0 6.0 0.00 0.00 0.00 52 1010.6
20260508102019 50 17 4.0 6.0 0.00 0.00 0.00 49 1010.5
20260508101019 50 6 3.0 5.0 0.00 0.00 0.00 49 1010.5
20260508100017 51 10 3.0 4.0 0.00 0.00 0.00 46 1010.6
20260508095017 51 11 2.0 3.0 0.00 0.00 0.00 45 1010.7
20260508094037 51 350 2.0 3.0 0.00 0.00 0.00 50 1010.7
20260508093020 51 355 2.0 3.0 0.00 0.00 0.00 49 1010.8
20260508092017 52 339 3.0 4.0 0.00 0.00 0.00 48 1010.9
20260508091020 53 326 2.0 3.0 0.00 0.00 0.00 47 1010.9
20260508090019 53 328 2.0 3.0 0.00 0.00 0.00 45 1010.8
20260508085020 53 342 2.0 4.0 0.00 0.00 0.00 46 1010.8
20260508084016 53 341 2.0 3.0 0.00 0.00 0.00 45 1010.8
20260508083018 54 335 2.0 3.0 0.00 0.00 0.00 45 1010.8
20260508082019 55 240 0.0 2.0 0.00 0.00 0.00 42 1010.8
20260508081020 55 316 1.0 3.0 0.00 0.00 0.00 41 1010.9
20260508080040 55 321 2.0 5.0 0.00 0.00 0.00 41 1011.0
20260508075017 56 300 0.0 2.0 0.00 0.00 0.00 40 1010.9
20260508074057 55 329 2.0 4.0 0.00 0.00 0.00 40 1011.0
20260508073019 55 331 1.0 4.0 0.00 0.00 0.00 42 1011.0
20260508072017 56 327 2.0 4.0 0.00 0.00 0.00 41 1011.1
20260508071017 56 321 0.0 4.0 0.00 0.00 0.00 41 1011.0
20260508070059 57 287 0.0 1.0 0.00 0.00 0.00 37 1011.0
20260508065018 57 330 1.0 3.0 0.00 0.00 0.00 34 1011.0
20260508064019 57 331 2.0 3.0 0.00 0.00 0.00 35 1010.9
20260508063018 58 0.0 0.0 0.00 0.00 0.00 34 1010.9
20260508062017 60 349 0.0 2.0 0.00 0.00 0.00 32 1010.8
20260508061019 61 348 1.0 4.0 0.00 0.00 0.00 30 1010.8
20260508060018 61 336 1.0 3.0 0.00 0.00 0.00 28 1010.8
20260508055018 60 343 1.0 3.0 0.00 0.00 0.00 29 1010.9
20260508054040 60 359 2.0 4.0 0.00 0.00 0.00 31 1010.9
20260508053019 60 5 2.0 3.0 0.00 0.00 0.00 31 1010.9
20260508052019 61 354 1.0 3.0 0.00 0.00 0.00 31 1011.0
20260508051020 61 345 1.0 3.0 0.00 0.00 0.00 30 1011.0
20260508050020 61 345 1.0 4.0 0.00 0.00 0.00 30 1011.0
20260508045016 61 353 1.0 3.0 0.00 0.00 0.00 29 1011.0
20260508044021 61 356 2.0 3.0 0.00 0.00 0.00 30 1011.0
20260508043019 62 355 0.0 3.0 0.00 0.00 0.00 29 1011.0
20260508042039 62 0.0 0.0 0.00 0.00 0.00 28 1010.9
20260508041017 62 3 0.0 2.0 0.00 0.00 0.00 29 1010.9
20260508040017 62 307 0.0 3.0 0.00 0.00 0.00 28 1010.8
20260508035017 63 5 0.0 2.0 0.00 0.00 0.00 29 1010.9
20260508034017 63 0.0 0.0 0.00 0.00 0.00 29 1010.9
20260508033019 63 0.0 0.0 0.00 0.00 0.00 29 1010.9
20260508032017 64 81 0.0 1.0 0.00 0.00 0.00 28 1010.8
20260508031040 65 91 0.0 2.0 0.00 0.00 0.00 28 1010.8
20260508030018 66 84 1.0 3.0 0.00 0.00 0.00 27 1011.0
20260508025018 67 41 0.0 3.0 0.00 0.00 0.00 27 1011.0
20260508024038 68 358 0.0 2.0 0.00 0.00 0.00 26 1011.0
20260508023018 68 337 1.0 3.0 0.00 0.00 0.00 25 1011.0
20260508022020 68 323 0.0 3.0 0.00 0.00 0.00 25 1011.0
20260508021016 70 310 2.0 5.0 0.00 0.00 0.00 23 1011.0
20260508020020 71 274 2.0 6.0 0.00 0.00 0.00 22 1011.1
20260508015019 71 263 1.0 4.0 0.00 0.00 0.00 22 1011.1
20260508014020 71 195 2.0 5.0 0.00 0.00 0.00 23 1011.2
20260508013018 71 241 2.0 4.0 0.00 0.00 0.00 22 1011.2
20260508012037 71 56 1.0 4.0 0.00 0.00 0.00 22 1011.3
20260508011018 71 212 2.0 5.0 0.00 0.00 0.00 22 1011.4
20260508010018 70 105 2.0 4.0 0.00 0.00 0.00 22 1011.4
20260508005017 70 220 2.0 4.0 0.00 0.00 0.00 23 1011.6
20260508004018 69 252 0.0 2.0 0.00 0.00 0.00 24 1011.6
20260508003018 69 352 1.0 3.0 0.00 0.00 0.00 24 1011.6
20260508002018 69 261 3.0 7.0 0.00 0.00 0.00 23 1011.7
20260508001018 70 245 3.0 8.0 0.00 0.00 0.00 23 1011.7
20260508000018 70 201 3.0 5.0 0.00 0.00 0.00 24 1011.9
20260507235038 70 46 2.0 7.0 0.00 0.00 0.00 24 1011.9
20260507234018 70 230 2.0 7.0 0.00 0.00 0.00 25 1012.0
20260507233021 70 244 3.0 8.0 0.00 0.00 0.00 24 1012.1
20260507232100 69 207 2.0 5.0 0.00 0.00 0.00 24 1012.2
20260507231016 70 229 3.0 10.0 0.00 0.00 0.00 24 1012.3
20260507230019 69 241 4.0 9.0 0.00 0.00 0.00 24 1012.4
20260507225041 68 270 2.0 6.0 0.00 0.00 0.00 23 1012.6
20260507224020 69 226 3.0 9.0 0.00 0.00 0.00 23 1012.7
20260507223017 69 287 3.0 9.0 0.00 0.00 0.00 23 1012.8
20260507222038 68 280 4.0 10.0 0.00 0.00 0.00 23 1012.9
20260507221017 68 245 3.0 10.0 0.00 0.00 0.00 24 1013.0
20260507220022 68 290 3.0 8.0 0.00 0.00 0.00 24 1013.1
20260507215019 68 306 2.0 6.0 0.00 0.00 0.00 23 1013.2
20260507214018 68 232 1.0 5.0 0.00 0.00 0.00 24 1013.4
20260507213020 67 305 2.0 5.0 0.00 0.00 0.00 26 1013.4
20260507212018 67 314 2.0 9.0 0.00 0.00 0.00 25 1013.5
20260507211019 66 238 2.0 8.0 0.00 0.00 0.00 25 1013.6
20260507210018 65 258 4.0 9.0 0.00 0.00 0.00 26 1013.8
20260507205019 65 245 3.0 11.0 0.00 0.00 0.00 27 1013.9
20260507204018 65 274 2.0 6.0 0.00 0.00 0.00 28 1014.0
20260507203019 64 287 2.0 6.0 0.00 0.00 0.00 29 1014.1
20260507202016 64 301 4.0 8.0 0.00 0.00 0.00 29 1014.1
20260507201036 64 281 4.0 9.0 0.00 0.00 0.00 30 1014.1
20260507200019 64 269 4.0 11.0 0.00 0.00 0.00 31 1014.2
20260507195020 63 259 2.0 6.0 0.00 0.00 0.00 34 1014.3
20260507194017 63 262 3.0 7.0 0.00 0.00 0.00 35 1014.3
20260507193139 62 268 3.0 7.0 0.00 0.00 0.00 36 1014.4
20260507192017 62 353 1.0 6.0 0.00 0.00 0.00 36 1014.6
20260507191019 61 280 3.0 6.0 0.00 0.00 0.00 37 1014.7
20260507190019 60 280 3.0 8.0 0.00 0.00 0.00 39 1014.8
20260507185018 60 233 2.0 6.0 0.00 0.00 0.00 40 1014.8
20260507184018 59 274 3.0 10.0 0.00 0.00 0.00 41 1014.9
20260507183018 58 260 3.0 8.0 0.00 0.00 0.00 43 1015.1
20260507182018 58 243 3.0 8.0 0.00 0.00 0.00 44 1015.2
20260507181018 57 261 2.0 6.0 0.00 0.00 0.00 45 1015.3
20260507180019 56 293 2.0 9.0 0.00 0.00 0.00 46 1015.4
20260507175019 56 261 3.0 7.0 0.00 0.00 0.00 47 1015.4
20260507174019 55 317 3.0 6.0 0.00 0.00 0.00 48 1015.5
20260507173019 55 305 3.0 7.0 0.00 0.00 0.00 48 1015.6
20260507172016 54 255 2.0 6.0 0.00 0.00 0.00 50 1015.8
20260507171016 54 271 3.0 8.0 0.00 0.00 0.00 50 1015.7
20260507170019 53 216 2.0 5.0 0.00 0.00 0.00 52 1015.8
20260507165020 53 293 2.0 4.0 0.00 0.00 0.00 52 1016.0